Showing default

GENA-OT-1, 66774

Orbit data source: Space-Track

GENA-OT-1, 66774 is a German payload satellite in SSO that was launched on Fri, 28 Nov 2025 UTC via an FALCON 9 launch vehicle from the Air Force Western Test Range (AFWTR). Payload-class satellites include a variety of spacecraft equipped with specific instruments for various scientific and technological missions. These include communications satellites like Starlink; space stations such as the ISS; scientific satellites like the Hubble; Earth observation satellites from companies like Planet Labs, Umbra, and HawkEye 360; GPS; miniature CubeSats for education and research; and military/defense satellites.

Loading next visibility...
Identifier
66774, 2025-276DN
Orbit
SSO
Country
Flag of DEDE / GER
Related business
Manufacturer
OroraTech
Mission
Operational Commercial Technology
Bus & Motor
CUBESAT 12U, Unknown motor
Mass
~15 kg wet, ~15 kg dry
Launch date (UTC)
2025-11-28 (9 months ago)
Launch vehicle
FALCON 9
Launch site
Air Force Western Test Range (AFWTR)
Object type
Payload
Rocket body
Debris
Shape & HBR
Box + 2 Pan, 0.2 m
Radar Cross Section
0.092 m², Medium (>0.1 m² and < 1m²)

Expand to show TLE details & history
Last TLE update: 15 hours ago

TLE from 15 hours ago
0 GENA-OT-1
1 66774U 25276DN  26238.15335869  .00005339  00000-0  23808-3 0  9997
2 66774  97.4163 311.0713 0001423  46.4767 313.6587 15.21823249 41085
Epoch: 2026-08-26T03:40Z
TLE epoch observation values (Epoch: 2026-08-26T03:40:50.190Z)
Latitude
-0.00006°
Longitude
-78.54826°
Altitude
502.758 km
Speed
7.613 km/s
True Right ascension
20h 44m 17s
True Declination
0° 00' 00"
Sunlit
Object was in full shadow at epoch
Visualization orbit readout
Latitude
Unknown
Longitude
Unknown
Altitude
Unknown
Speed
Unknown
Apparent Right ascension
Unknown
Apparent Declination
Unknown
Sunlit
N/A
Visualization observer readout
Local Sidereal Time
09:54:42
Azimuth
Unknown
Elevation
Unknown
Doppler factor
Unknown
Orbital elements
Apogee altitude
498.283 km
Perigee altitude
496.327 km
Semi-major axis
6,875.442 km
Eccentricity
0.00014
Inclination
97.4163°
RAAN
311.0713°
Arg. of periapsis
46.4767°
True anomaly
313.6469°
Mean anomaly
313.6587°
Eccentric anomaly
313.6528°
Mean motion
3.80708 °/min
Orbital period
94.56 mins
BSTAR
0.00023808
Loading maneuver chart data...
Computing Atmospheric mass density...
Loading historical data...
Loading historical data...
Loading historical data...
Loading historical data...
Loading historical data...
Loading historical data...
Loading historical data...

Documentation

Showing up to 5 results
|